GFSSE_con_lsi_159.txt.gz
Lid_Strength_Index
1 -0 -0 -1 -1 -1 -1 -1 -1 -1 -1 -1 -1 -1 -1 -1 -1 -1 -1 -1 -1 -1 -1 -1 -1 -1 -1 -1 -1 -1 -1 -1 -1 -1 -1 -1 -1 -1 -1 -1 -1 -1 -1
-0 -0 -0 -1 -1 -1 -1 -1 -1 -1 -1 -1 -1 -1 -1 -1 -1 -1 -1 -1 -1 -1 -1 -1 -1 -1 -1 -1 -1 -1 -1 -1 -1 -1 -1 -1 -1 -1 -1 -1 -1 -1 -1
0 -1 -1 -0 -1 -1 -1 -1 -1 -1 -1 -1 -1 -1 -1 -1 -1 -1 -1 -1 -1 -1 -1 -1 -1 -1 -1 -1 -1 -1 -1 -1 -1 -1 -1 -1 -1 -1 -1 -1 -1 -1 -1
-0 -0 -1 -1 -0 -1 -1 -1 -1 -1 -1 -1 -1 -1 -1 -1 -1 -1 -1 -1 -1 -1 -1 -1 -1 -1 -1 -1 -1 -1 -1 -1 -1 -1 -1 -1 -1 -2 -1 -1 -1 -1 -1
0 -0 -1 -0 -0 -1 -1 -1 -1 -1 -1 -1 -1 -1 -1 -1 -1 -1 -1 -1 -1 -1 -1 -1 -1 -1 -1 -1 -1 -1 -1 -1 -1 -1 -1 -1 -1 -1 -2 -1 -1 -1 -1
0 -0 -1 -0 -0 -1 -1 -1 -1 -1 -1 -1 -1 -1 -1 -1 -1 -1 -1 -1 -1 -1 -1 -1 -1 -1 -1 -1 -1 -1 -1 -1 -1 -1 -1 -1 -1 -1 -1 -1 -1 -2 -1
0 -0 -1 -0 -1 -1 -1 -1 -1 -1 -1 -1 -1 -1 -1 -1 -1 -1 -1 -1 -1 -1 -1 -1 -1 -1 -1 -1 -1 -1 -1 -1 -1 -1 -1 -1 -1 -1 -1 -1 -1 -1 -2
0 -0 -1 -1 -1 -0 -1 -1 -1 -1 -1 -1 -1 -1 -1 -1 -1 -1 -1 -1 -1 -1 -1 -1 -1 -1 -1 -1 -1 -1 -1 -1 -1 -1 -1 -1 -1 -1 -0 -2 -2 -1 -1
-0 -0 -0 -1 -1 -1 -1 -1 -1 -1 -1 -1 -1 -1 -1 -1 -1 -1 -1 -1 -1 -1 -1 -1 -1 -1 -1 -1 -1 -1 -1 -1 -1 -1 -1 -1 -2 -1 -1 -2 -2 -2 -1
0 0 0 -0 -1 -1 -1 -1 -1 -1 -1 -1 -1 -1 -1 -1 -1 -1 -1 -1 -1 -1 -1 -1 -1 -1 -1 -1 -1 -1 -1 -1 -1 -1 -1 -1 -2 -2 -1 -2 -2 -1 -1
1 0 -0 -0 -0 -1 -1 -1 -1 -1 -1 -1 -1 -1 -1 -1 -1 -1 -2 -1 -1 -1 -1 -1 -1 -1 -1 -1 -2 -2 -1 -1 -1 -1 -1 -3 -3 -3 -2 -2 -2 -1 -1
1 1 0 -0 -0 -0 -1 -1 -1 -1 -1 -2 -2 -2 -2 -2 -2 -2 -1 -1 -1 -1 -1 -1 -1 -1 -1 -1 -1 -1 -1 -1 -1 -1 -1 -3 -3 -2 -2 -2 -1 -1 -1
1 1 0 -0 -0 -0 -0 -1 -1 -1 -1 -1 -2 -2 -3 -2 -2 -1 -1 -1 -2 -1 -1 -1 -1 -1 -1 -1 -1 -1 -1 -1 -1 -1 -2 -3 -2 -2 -1 -1 -1 -1 -1
1 1 0 -0 -0 -0 -0 -0 -0 -0 -1 -1 -1 -2 -2 -1 -1 -1 -1 -1 -2 -1 -1 -1 -1 -1 -1 -1 -1 -1 -1 -1 -1 -1 -2 -2 -2 -2 -1 -1 -1 -1 -1
1 1 0 -0 -0 -0 -0 -0 -0 -0 -0 -1 -1 -1 -1 -1 -1 -1 -1 -1 -1 -1 -1 -1 -1 -1 -1 -1 -1 -1 -1 -1 -1 -1 -1 -2 -2 -2 -2 -1 -1 -2 -2
1 1 0 0 0 -0 -0 -1 -0 -1 -1 -1 -1 -1 -1 -1 -1 -1 -1 -1 -1 -1 -1 -1 -1 -1 -0 -1 -1 -1 -1 -1 -1 -1 -1 -1 -2 -2 -1 -1 -2 -1 -1
1 0 1 1 0 -0 -0 -0 -0 -1 -1 -1 -1 -2 -1 -2 -2 -1 -1 -1 -1 -2 -2 -1 -1 -1 -0 -0 0 -0 -0 -1 -1 -1 -1 -1 -1 -2 -2 -2 -2 -1 -1
1 1 1 1 0 0 -0 -0 -0 -0 -1 -1 -1 -1 -1 -2 -2 -1 -1 -1 -1 -1 -1 -1 -0 0 0 0 0 -0 0 -1 -1 -1 -1 -1 -1 -1 -2 -2 -2 -2 -1
0 1 1 1 1 0 0 -0 -1 -1 -1 -1 -1 -1 -1 -1 -1 -1 -1 -1 -2 -1 0 -0 -0 0 0 0 0 0 -0 0 -0 -0 -1 -1 -1 -1 -1 -2 -2 -2 -1
0 0 1 1 1 0 0 -0 -0 -0 -0 -1 -1 -1 -1 -1 -1 -1 -1 -1 -1 -0 1 1 0 0 0 1 1 1 1 0 -0 -0 -1 -1 -1 -1 -1 -1 -1 -1 -2
0 1 1 2 1 1 1 1 1 1 0 -0 -1 -1 -1 -1 -1 -1 -1 -0 -0 0 1 -0 -0 1 1 0 2 2 1 0 0 -0 -0 -0 -0 -1 -1 -1 -1 -1 -1
1 2 2 2 1 1 1 0 0 1 0 -0 -0 -1 -1 -1 -1 -1 -1 -0 -1 0 0 0 0 1 1 1 3 3 4 2 1 1 0 0 -0 -0 -0 -1 -1 -1 -2
2 2 2 2 1 1 0 0 0 0 0 1 1 0 -0 -1 -1 -1 -1 -1 -1 -1 0 1 1 1 2 1 1 2 5 5 4 1 1 0 0 -0 -0 -1 -1 -1 -2
2 2 2 1 1 1 0 1 1 2 2 1 1 0 0 -1 -1 -1 -1 -1 0 0 -0 0 -0 -0 1 2 1 1 1 2 5 6 2 1 0 1 -0 -0 -0 -1 -2
2 2 2 1 1 1 0 0 1 1 1 1 1 1 0 -0 -0 0 -0 -1 -0 -1 -0 -0 -0 0 0 1 2 2 1 1 1 3 5 3 2 0 -0 -0 -0 -0 -1
2 2 2 2 2 1 1 0 1 1 1 2 1 2 1 1 0 -0 -0 -0 -1 -0 -0 -0 -0 -0 1 1 1 1 2 3 3 4 4 3 3 1 0 -0 -0 -0 -1

GFSSE_con_lsi_162.txt.gz
Lid_Strength_Index
1 0 -0 -0 -0 -1 -1 -1 -1 -1 -1 -1 -1 -1 -1 -1 -1 -1 -1 -1 -1 -1 -1 -1 -1 -1 -1 -1 -1 -1 -1 -1 -1 -1 -1 -1 -1 -1 -1 -1 -1 -1 -1
0 -0 -0 -0 -0 -1 -1 -1 -1 -1 -1 -1 -1 -1 -1 -1 -1 -1 -1 -1 -1 -1 -1 -1 -1 -1 -1 -1 -1 -1 -1 -1 -1 -1 -1 -1 -1 -1 -1 -1 -1 -0 -1
1 -0 -0 -0 -0 -1 -1 -1 -1 -1 -1 -1 -1 -1 -1 -1 -1 -1 -1 -1 -1 -1 -1 -1 -1 -1 -1 -1 -1 -1 -1 -1 -1 -1 -1 -0 -0 -1 -1 -1 -1 -1 -1
0 -0 -0 -0 -0 -0 -1 -1 -1 -1 -1 -1 -1 -1 -1 -1 -1 -1 -1 -1 -1 -1 -1 -1 -1 -1 -1 -1 -1 -1 -1 -1 -1 -1 -0 -0 -1 -1 -1 -1 -1 -1 -1
0 -0 -0 -0 -0 -0 -1 -1 -1 -1 -1 -1 -1 -1 -1 -1 -1 -1 -1 -1 -1 -1 -1 -1 -1 -1 -1 -1 -1 -1 -1 -1 -1 -1 0 -0 -0 -1 -2 -1 -1 -1 -1
0 -0 -0 -0 -0 -0 -1 -1 -1 -1 -1 -1 -1 -1 -1 -1 -1 -1 -1 -1 -1 -1 -1 -1 -1 -1 -1 -1 -1 -1 -1 -1 -1 -0 0 -1 -0 -2 -2 -2 -1 -2 -2
1 0 -0 -0 -0 -0 -1 -1 -1 -1 -1 -1 -1 -1 -1 -1 -1 -1 -1 -1 -1 -1 -1 -1 -1 -1 -1 -1 -1 -1 -1 -1 -0 -0 -0 -0 -0 -1 -2 -2 -2 -2 -1
1 0 -0 -0 -0 -0 -0 -0 -1 -1 -1 -1 -1 -1 -1 -1 -1 -1 -1 -1 -1 -1 -1 -1 -1 -1 -1 -1 -1 -1 -1 -1 -1 -0 -0 -0 -1 -2 -2 -2 -2 -2 -2
0 0 0 -0 -0 -0 -0 -0 -0 -1 -0 -1 -1 -1 -1 -1 -1 -1 -1 -1 -1 -1 -1 -1 -1 -1 -1 -1 -1 -1 -1 -1 -0 -0 -0 -0 -1 -2 -2 -2 -2 -2 -2
0 0 0 -0 -0 -0 -0 -1 -1 -1 -1 -1 -1 -1 -1 -1 -1 -1 -1 -1 -1 -1 -1 -1 -1 -1 -1 -1 -2 -2 -2 -1 -0 -0 -0 -0 -2 -2 -2 -2 -3 -2 -2
1 1 0 0 0 -0 -0 -0 -1 -1 -1 -1 -1 -1 -1 -1 -1 -1 -1 -1 -1 -1 -1 -1 -1 -1 -1 -2 -2 -2 -2 -0 -0 -0 -0 -3 -2 -3 -2 -2 -2 -2 -1
2 1 0 0 0 -0 -0 -0 -0 -1 -0 -1 -1 -1 -1 -1 -1 -1 -1 -1 -1 -1 -1 -1 -1 -1 -1 -0 -0 -1 -0 0 1 0 0 -3 -3 -2 -2 -2 -2 -2 -1
2 1 1 0 0 0 0 -0 -0 -0 -1 -1 -1 -1 -1 -1 -1 -1 -1 -1 -1 -1 -0 -1 -1 -0 -0 -0 -0 -0 0 -0 0 -0 -1 -3 -2 -2 -2 -2 -2 -1 -1
2 1 1 0 0 0 0 0 -0 0 -0 -0 -0 -1 -1 -0 -0 -0 -0 -0 -0 -1 -0 -0 -0 -0 -0 -1 -0 -0 -0 -0 -0 -0 -1 -2 -2 -2 -2 -2 -1 -1 -1
2 1 1 1 0 0 0 0 0 0 -0 -0 -0 -1 -1 -0 0 -0 -0 -0 -0 -1 -0 0 -0 0 -0 -0 -0 -0 -0 -0 -0 -0 -0 -3 -2 -2 -2 -1 -1 -1 -1
2 2 1 1 0 0 0 0 0 -0 -0 -0 -0 -0 -1 -1 0 -0 -0 -0 -0 -1 -1 -0 0 0 0 0 0 0 0 -0 -0 -0 -0 -1 -2 -2 -1 -1 -2 -2 -1
2 2 2 1 0 0 0 0 0 0 -0 -0 -0 -1 -1 -1 -0 -0 0 0 -0 -1 -1 -0 -0 -0 0 0 0 0 0 -0 -0 -0 -0 -0 -1 -2 -2 -2 -1 -2 -2
-0 2 1 1 1 1 0 0 0 -0 -0 -0 -0 -0 -1 -1 -1 -0 0 0 -0 -0 -0 0 0 1 1 1 1 1 0 0 0 0 -0 -0 -0 -0 -1 -2 -2 -2 -2
0 2 2 1 1 1 0 0 -0 0 0 -0 -0 -0 -1 -1 -1 -0 0 -0 -1 0 0 0 1 1 1 1 1 1 0 0 0 0 0 0 -0 -0 -0 -2 -2 -2 -2
1 2 1 1 1 1 1 0 0 0 0 -0 -0 -0 -0 -1 -1 -0 -0 -0 -0 0 0 0 1 0 1 1 2 1 1 1 0 0 0 -0 -0 -0 0 0 -0 -1 -3
0 2 1 2 1 1 1 2 2 2 1 1 0 -0 -0 -1 -1 -0 -0 0 -0 0 1 0 1 1 1 1 2 2 2 1 1 1 0 0 0 1 -0 2 1 1 1
1 2 2 2 1 1 1 1 1 1 1 0 0 0 -0 -0 -1 -0 -0 0 0 1 1 1 1 2 1 1 3 3 5 3 2 1 1 1 1 1 2 2 1 0 0
2 2 2 2 1 1 1 1 1 1 1 1 1 1 0 -0 -0 -1 -0 0 0 0 1 1 0 1 3 1 1 3 6 6 4 2 2 2 1 3 3 1 0 0 -0
2 2 2 2 2 1 1 1 1 2 3 2 1 1 0 -0 1 1 0 -0 0 0 1 1 0 1 1 3 2 1 1 2 5 6 2 3 2 2 1 1 1 0 -0
2 2 2 2 2 1 1 1 2 2 2 1 1 1 2 2 1 1 -0 -0 0 0 0 0 1 1 1 2 2 2 2 2 2 4 6 4 2 1 2 2 1 1 0
2 2 2 2 2 1 1 1 2 2 2 2 2 2 2 2 1 -0 -0 -0 -0 0 0 0 0 0 1 1 1 2 2 3 4 4 4 4 4 3 2 2 1 1 1

GFSSE_con_lsi_165.txt.gz
Lid_Strength_Index
1 0 -0 -1 -1 -1 -1 -1 -1 -1 -1 -1 -1 -1 -1 -1 -1 -1 -1 -1 -1 -1 -1 -1 -1 -1 -1 -1 -1 -1 -1 -1 -1 -1 -1 -1 -1 -1 -1 -1 -1 -0 -1
0 -0 -0 -0 -1 -1 -1 -1 -1 -1 -1 -1 -1 -1 -1 -1 -1 -1 -1 -1 -1 -1 -1 -1 -1 -1 -1 -1 -1 -1 -1 -1 -1 -1 -1 -1 -1 -1 -1 -1 -1 -1 -1
1 -0 -0 -0 -1 -1 -1 -1 -1 -1 -1 -1 -1 -1 -1 -1 -1 -1 -1 -1 -1 -1 -1 -1 -1 -1 -1 -1 -1 -1 -1 -1 -1 -1 -1 -0 -0 -1 -1 -1 -1 -1 -1
0 0 -0 -0 -1 -1 -1 -1 -1 -1 -1 -1 -1 -1 -1 -1 -1 -1 -1 -1 -1 -1 -1 -1 -1 -1 -1 -1 -1 -1 -1 -1 -1 -1 -0 -0 -0 -1 -1 -1 -1 -1 -1
1 0 -0 -0 -0 -1 -1 -1 -1 -1 -1 -1 -1 -1 -1 -1 -1 -1 -1 -1 -1 -1 -1 -1 -1 -1 -1 -1 -1 -1 -1 -1 -1 -1 1 1 -0 -1 -2 -2 -1 -1 -1
1 -0 -0 -0 -0 -0 -1 -1 -1 -1 -1 -1 -1 -1 -1 -1 -1 -1 -1 -1 -1 -1 -1 -1 -1 -1 -1 -1 -1 -1 -1 -1 -1 1 1 -0 0 -1 -2 -2 -2 -2 -2
1 0 -0 -0 -0 -1 -1 -1 -1 -1 -1 -1 -1 -1 -1 -1 -1 -1 -1 -1 -1 -1 -1 -1 -1 -1 -1 -1 -1 -1 -1 -1 -0 -0 0 -0 -0 -1 -2 -2 -2 -2 -2
1 0 -0 -0 -0 -0 -0 -1 -1 -1 -1 -1 -1 -1 -1 -1 -1 -1 -1 -1 -1 -1 -1 -1 -1 -1 -2 -2 -1 -1 -1 -1 -0 -0 0 1 -1 -1 -2 -2 -2 -2 -2
0 0 0 -0 -0 -1 -1 -1 -1 -1 -1 -1 -1 -1 -1 -1 -1 -1 -1 -1 -1 -1 -1 -1 -1 -1 -2 -2 -2 -2 -2 -1 0 -0 -0 0 -1 -2 -2 -2 -2 -2 -2
1 0 0 0 -0 -0 -0 -1 -1 -1 -1 -1 -1 -1 -1 -1 -1 -1 -1 -1 -1 -1 -1 -1 -1 -1 -1 -2 -2 -2 -2 -1 0 0 -0 -0 -2 -2 -2 -2 -2 -2 -2
1 1 0 0 0 0 -0 -0 -1 -1 -1 -1 -1 -1 -0 0 -0 -0 -1 -1 -1 -1 -1 -1 -1 -1 -2 -2 -2 -2 -2 0 0 0 0 -2 -2 -2 -2 -2 -2 -2 -2
3 3 1 1 1 0 -0 -0 -0 -0 -0 -0 -0 -0 0 1 0 -1 -1 -1 -1 -1 -1 -1 -1 -2 -2 -0 0 -2 -0 -0 1 2 3 -3 -2 -2 -3 -2 -2 -2 -1
3 3 1 1 1 1 0 -0 -0 -0 -0 0 0 0 0 -0 0 0 0 -0 0 -1 0 -0 -0 -0 0 0 1 1 0 1 2 2 -0 -2 -2 -2 -2 -2 -2 -1 -1
2 2 2 1 1 1 0 0 0 0 0 1 0 0 0 0 0 0 -0 0 0 0 0 0 0 0 0 0 1 1 1 1 1 1 -0 -2 -2 -2 -2 -2 -2 -1 -1
3 2 3 1 1 0 1 0 0 1 0 0 0 0 0 0 1 0 0 0 0 0 0 0 0 0 0 1 2 0 1 1 0 1 -0 -2 -2 -2 -2 -2 -2 -1 -2
2 2 2 2 1 1 1 0 0 0 0 0 0 0 0 1 1 1 0 1 0 0 0 1 1 1 2 1 1 0 0 0 -0 0 0 -0 -2 -2 -2 -1 -2 -1 -2
2 2 2 2 1 2 1 1 1 0 0 0 0 0 -0 0 1 1 1 1 1 1 1 0 1 0 1 0 2 2 2 1 0 -0 -0 -0 -1 -2 -2 -2 -2 -2 -2
2 2 1 1 1 1 1 0 0 0 0 0 0 0 0 0 0 0 1 1 0 0 0 0 1 2 3 3 3 3 2 1 1 1 -0 -0 0 0 -1 -2 -2 -2 -2
2 2 2 1 1 1 1 1 0 0 0 1 0 1 0 0 -0 0 1 0 0 1 1 1 3 2 3 4 3 2 2 1 2 -0 -0 1 0 2 2 1 -2 -2 -2
2 2 1 1 1 1 1 1 1 1 0 0 0 0 0 0 -0 0 0 1 1 1 1 2 3 3 4 4 2 2 1 1 0 0 1 1 3 2 3 4 3 2 -2
2 2 2 2 1 1 2 2 2 2 1 1 0 0 0 0 0 0 1 1 2 2 2 2 2 3 3 2 3 2 2 1 1 1 1 3 3 3 4 4 3 2 1
3 2 2 2 2 1 1 1 1 1 1 1 0 0 0 0 0 0 1 1 1 1 2 3 2 3 2 2 4 4 5 4 2 1 3 4 3 3 3 2 2 2 1
3 3 2 2 2 1 1 1 1 1 1 2 1 1 0 0 0 1 1 2 2 3 3 2 2 2 3 2 1 3 6 7 4 3 4 4 4 4 4 3 2 2 3
5 2 2 2 2 1 1 2 2 2 3 2 2 1 2 1 1 1 2 2 3 3 2 2 1 2 2 3 3 3 2 3 6 7 5 5 3 3 3 3 3 2 2
3 2 2 2 2 1 1 1 2 2 2 1 2 3 3 3 2 2 2 2 2 1 2 2 2 3 3 4 4 5 5 5 5 7 8 5 4 4 4 4 4 3 3
3 2 2 2 2 2 1 1 2 2 2 2 3 3 3 2 3 2 1 1 2 2 2 2 3 4 3 4 4 4 5 6 6 6 7 7 6 5 4 4 4 4 4

GFSSE_con_lsi_168.txt.gz
Lid_Strength_Index
1 -0 -0 -1 -1 -1 -1 -1 -1 -1 -1 -1 -1 -1 -1 -1 -1 -1 -1 -1 -1 -1 -1 -1 -1 -1 -1 -1 -1 -1 -1 -1 -1 -1 -1 -1 -1 -1 -1 -1 -1 -1 -1
1 -0 -0 -1 -1 -1 -1 -1 -1 -1 -1 -1 -1 -1 -1 -1 -1 -1 -1 -1 -1 -1 -1 -1 -1 -1 -1 -1 -1 -1 -1 -1 -1 -1 -1 -1 -1 -1 -1 -1 -1 -1 -1
1 -0 -0 -1 -1 -1 -1 -1 -1 -1 -1 -1 -1 -1 -1 -1 -1 -1 -1 -1 -1 -1 -1 -1 -1 -1 -1 -1 -1 -1 -1 -1 -1 -1 -1 -0 -0 -1 -1 -1 -1 -1 -1
0 -0 -0 -1 -1 -1 -1 -1 -1 -1 -1 -1 -1 -1 -1 -1 -1 -1 -1 -1 -1 -1 -1 -1 -1 -1 -1 -1 -1 -1 -1 -1 -1 -1 -0 -0 -0 -1 -1 -1 -1 -1 -1
0 -0 -0 -1 -1 -1 -1 -1 -1 -1 -1 -1 -1 -1 -1 -1 -1 -1 -1 -1 -1 -1 -1 -1 -1 -1 -1 -1 -1 -1 -1 -1 -1 -0 1 1 1 -1 -2 -1 -1 -1 -1
1 0 -0 -0 -0 -1 -1 -1 -1 -1 -1 -1 -1 -1 -1 -1 -1 -1 -1 -1 -1 -1 -1 -1 -1 -1 -1 -1 -1 -1 -1 -1 -1 1 1 1 -0 -1 -2 -1 -2 -2 -2
1 -0 -0 -0 -1 -1 -1 -1 -1 -1 -1 -1 -1 -1 -1 -1 -1 -1 -1 -1 -1 -1 -1 -1 -1 -1 -1 -1 -1 -1 -1 -1 -0 1 0 0 0 -1 -2 -1 -1 -2 -2
1 0 -0 -0 -0 -1 -1 -1 -1 -1 -1 -1 -1 -1 -1 -1 -1 -1 -1 -1 -1 -1 -1 -1 -1 -1 -1 -1 -1 -2 -2 -1 -0 0 0 1 -0 -1 -1 -1 -2 -2 -2
0 0 0 -0 -0 -1 -1 -0 -1 -1 -1 -1 -1 -1 -1 -1 -1 -1 -1 -1 -1 -1 -1 -1 -2 -2 -2 -2 -2 -2 -2 -1 0 0 -0 0 -1 -1 -1 -2 -2 -2 -2
1 0 0 0 -0 -0 -0 -1 -1 -1 -1 -1 -1 -1 -1 -1 -1 -1 -1 -1 -1 -1 -1 -1 -1 -1 -1 -1 -2 -2 -2 -1 0 0 -0 -0 -2 -1 -1 -2 -2 -2 -2
1 1 0 0 0 -0 -0 -0 -1 -1 -1 -1 -1 -1 -0 -0 -0 -0 -1 -1 -1 -1 -1 -1 -1 -1 -1 -2 -2 -2 -1 0 0 0 1 -1 -2 -2 -1 -2 -2 -2 -2
3 2 1 0 0 0 -0 -0 -0 -0 -0 -0 -0 -0 0 0 0 -0 -1 -1 -1 -1 -1 -1 -1 -1 -1 0 0 -1 -0 0 1 2 3 -0 -1 -2 -1 -1 -2 -2 -1
2 2 1 1 0 0 0 0 -0 -0 -0 -0 -0 0 0 0 0 0 0 0 0 -1 0 -0 -0 0 0 0 1 1 1 1 2 3 2 -1 -2 -2 -2 -2 -2 -1 -1
3 2 1 1 1 0 0 0 0 0 -0 0 0 0 0 0 0 0 0 0 0 0 0 0 0 0 0 1 1 2 2 2 2 1 1 -2 -1 -1 -2 -2 -2 -2 -2
3 3 2 1 1 1 1 1 0 0 0 0 -0 0 0 1 0 1 0 0 0 0 0 1 1 0 1 1 1 2 1 1 1 0 0 -2 -1 -1 -2 -2 -2 -2 -2
3 3 3 2 1 1 1 1 1 1 0 0 0 0 0 0 1 0 1 1 1 1 0 1 1 2 1 1 1 1 1 1 1 2 1 -0 -2 -2 -2 -2 -2 -2 -2
3 3 4 3 1 1 1 1 1 0 0 1 0 0 0 1 2 1 2 2 2 2 2 1 1 1 2 3 3 3 2 1 1 1 -0 -0 0 -1 -1 -2 -2 -1 -2
2 3 2 1 2 2 1 0 1 0 0 0 0 1 0 0 1 1 2 2 0 0 0 2 2 3 4 4 3 3 2 1 1 -0 -0 1 1 1 2 -1 -0 -2 -1
2 2 2 1 1 1 1 1 1 0 0 0 1 1 0 0 0 1 1 0 0 1 2 3 3 4 5 5 3 3 2 2 1 -0 0 2 3 4 6 1 0 -1 -2
2 2 2 3 1 1 1 1 1 1 0 0 1 1 0 0 0 0 1 1 1 2 2 3 4 4 4 5 4 3 3 2 1 1 2 4 4 6 5 5 3 2 -2
2 3 2 2 1 1 1 2 2 2 1 1 1 1 1 0 0 1 1 2 2 3 3 3 3 4 4 3 4 3 3 2 1 3 5 5 3 3 3 3 3 3 2
3 2 2 3 4 1 1 1 1 1 1 1 1 1 1 0 0 1 2 3 2 3 3 3 3 3 3 2 4 4 6 4 4 3 6 3 4 4 4 4 3 3 3
3 3 3 3 2 1 1 1 1 1 1 2 2 1 0 0 0 1 2 2 3 3 3 4 3 3 4 3 4 4 6 7 5 4 5 4 4 5 5 4 4 3 3
3 2 2 2 2 2 1 2 2 3 3 2 2 2 2 1 1 2 3 3 3 4 3 3 3 3 4 6 4 4 5 5 7 8 6 5 5 5 5 4 4 3 4
3 2 2 2 2 4 4 1 2 2 2 2 2 3 3 2 3 2 2 2 3 3 3 4 4 5 5 5 5 6 6 7 7 8 9 7 5 5 5 5 4 5 4
3 3 2 2 2 4 4 3 2 2 2 2 3 3 3 3 3 3 3 3 3 3 3 4 4 5 5 5 5 5 7 7 8 7 8 8 7 6 5 5 5 5 4